Calgary Springbank,

4:27 PM MDT on April 25, 2018 (GMT -0600)
Calgary Springbank

Weather History for CYBW - February, 2013

Change the Weather History Date:

Monday, February 4, 2013

  Actual Average Record
Temperature  
Mean Temperature 32 °F -  
Max Temperature 42 °F 30 °F 51 °F (2006)
Min Temperature 19 °F 9 °F -25 °F (2018)
Degree Days  
Heating Degree Days 34    
Moisture  
Dew Point 19 °F    
Average Humidity 58    
Maximum Humidity 86    
Minimum Humidity 33    
Precipitation  
Precipitation 0.00 in - - ()
Sea Level Pressure  
Sea Level Pressure 29.82 in    
Wind  
Wind Speed 12 mph ()    
Max Wind Speed 28 mph    
Max Gust Speed 34 mph    
Visibility 15.0 miles    
Events      
Averages and records for this station are not official NWS values.
T = Trace of Precipitation, MM = Missing Value Source: Averaged Metar Reports

Daily Weather History Graph

Daily Weather History Graph

Search for Another Location

Airport or City:

Astronomy

Feb. 04, 2013 Rise Set
Actual Time 8:09 AM MST 5:34 PM MST
Civil Twilight 7:33 AM MST 6:09 PM MST
Nautical Twilight 6:54 AM MST 6:49 PM MST
Astronomical Twilight 6:15 AM MST 7:27 PM MST
Moon 2:58 AM MST (2/4) 11:51 AM MST (2/4)
Length of Visible Light 10h 36m
Length of Day
9h 25m
Last Quarter, 36% of the Moon is Illuminated
Feb 4
Last Quarter
Feb 10
New
Feb 17
First Quarter
Feb 25
Full
Mar 4
Last Quarter

Hourly Weather History & Observations

Time (MST) Temp. Windchill Dew Point Humidity Pressure Visibility Wind Dir Wind Speed Gust Speed Precip Events Conditions
5:00 AM 37 °F - 19 °F 35% 29.76 in 15 mi West 21.9 mph - -   Mostly Cloudy
5:00 AM 37.4 °F 25.4 °F 19.4 °F 48% 29.75 in 15.0 mi West 27.6 mph 34.5 mph N/A   Mostly Cloudy
6:00 AM 33.8 °F 24.3 °F 19.4 °F 56% 29.79 in 15.0 mi West 13.8 mph - N/A   Mostly Cloudy
7:00 AM 28.4 °F 18.5 °F 15.8 °F 59% 29.82 in 15.0 mi West 11.5 mph - N/A   Scattered Clouds
8:00 AM 26.6 °F 18.2 °F 14.0 °F 59% 29.78 in 30.0 mi SSW 8.1 mph - N/A   Mostly Cloudy
9:00 AM 24.8 °F 14.6 °F 15.8 °F 69% 29.79 in 30.0 mi West 10.4 mph - N/A   Scattered Clouds
10:00 AM 30.2 °F 25.4 °F 17.6 °F 60% 29.79 in 30.0 mi West 4.6 mph - N/A   Scattered Clouds
11:00 AM 40 °F - 21 °F 33% 29.76 in 28 mi WSW 8.1 mph - -   Partly Cloudy
11:00 AM 41.0 °F 35.8 °F 21.2 °F 45% 29.76 in 30.0 mi West 8.1 mph - N/A   Scattered Clouds
12:00 PM 42.8 °F 36.2 °F 19.4 °F 39% 29.75 in 30.0 mi WNW 12.7 mph 24.2 mph N/A   Scattered Clouds
1:00 PM 42.8 °F 35.4 °F 19.4 °F 39% 29.74 in 30.0 mi West 15.0 mph - N/A   Mostly Cloudy
2:00 PM 41.0 °F 33.9 °F 21.2 °F 45% 29.76 in 30.0 mi WNW 12.7 mph - N/A   Mostly Cloudy
3:00 PM 41.0 °F 31.6 °F 21.2 °F 45% 29.78 in 30.0 mi WNW 20.7 mph - N/A   Scattered Clouds
4:00 PM 39.2 °F 30.2 °F 21.2 °F 49% 29.81 in 30.0 mi NW 17.3 mph - N/A   Scattered Clouds
4:10 PM 33.8 °F 25.8 °F 19.4 °F 56% 29.83 in 30.0 mi NNE 10.4 mph 19.6 mph N/A   Scattered Clouds
4:19 PM 33.8 °F 23.5 °F 21.2 °F 60% 29.83 in 30.0 mi ENE 16.1 mph - N/A   Scattered Clouds
5:00 PM 30.2 °F 20.8 °F 21.2 °F 69% 29.87 in 30.0 mi ENE 11.5 mph - N/A   Scattered Clouds
6:00 PM 24.8 °F 16.9 °F 19.4 °F 80% 29.93 in 25.0 mi ESE 6.9 mph - N/A   Scattered Clouds
7:00 PM 23.0 °F 14.7 °F 17.6 °F 80% 29.96 in 15.0 mi SSE 6.9 mph - N/A   Scattered Clouds
8:00 PM 23.0 °F 14.7 °F 17.6 °F 80% 29.99 in 15.0 mi South 6.9 mph - N/A   Mostly Cloudy
9:00 PM 21.2 °F 10.9 °F 17.6 °F 86% 29.99 in 15.0 mi South 9.2 mph - N/A   Scattered Clouds
10:00 PM 19.4 °F 10.4 °F 15.8 °F 86% 29.81 in 15.0 mi South 6.9 mph - N/A   Partly Cloudy